Home   Weather   Villeurbanne   Past weeks

Flag for France Past Weather in Villeurbanne, Rhône-Alpes, France — Yesterday and Last 2 Weeks

Now
63 °F

Light rain. Cloudy.


Feels Like: 63 °F
Forecast: 53 / 64 °F
Wind: 6 mph from Southwest

Location: Lyon / Bron

Current Time: Oct 1, 2016 at 12:37:05 PM

Latest Report: Oct 1, 2016 at 12:00 PM


Visibility: N/A

Pressure: 29.98 "Hg

Humidity: 83%

Dew Point: 57 °F

Location of VilleurbanneLocation

Past Weather in Villeurbanne — Graph

°F

Villeurbanne Temperature Yesterday

Maximum temperature yesterday: 77 °F (at 2:00 PM)
Minimum temperature yesterday: 61 °F (at 5:00 AM)
Average temperature yesterday: 69 °F

High & Low Weather Summary for the Past Weeks

 TemperatureHumidityPressure
High81 °F (Sep 29, 2:30 PM)100% (Sep 18, 1:30 AM)30.48 "Hg (Sep 18, 1:30 AM)
Low48 °F (Sep 21, 6:00 AM)30% (Sep 24, 6:00 PM)29.89 "Hg (Oct 1, 3:30 AM)
Average63 °F72%30.14 "Hg
* Reported Sep 16 11:00 AM — Oct 1 11:30 AM, Villeurbanne, Weather by CustomWeather, © 2016

Note: Actual official high and low records may vary slightly from our data, if they occured in-between our weather recording intervals... More about our weather records

Advertising

Villeurbanne Weather History for the Previous 24 Hours

Scroll right to see more
 ConditionsComfort  
Time TempWeatherWind HumidityBarometerVisibility
11:30 AM
Sat, Oct 1
63 °FLight rain. Overcast.2 mph83%29.98 "HgN/A
11:00 AM63 °FLight rain. Mostly cloudy.3 mph83%29.95 "HgN/A
10:30 AM63 °FRain. Overcast.7 mph83%29.95 "HgN/A
10:00 AM64 °FMostly cloudy.12 mph73%29.92 "HgN/A
9:30 AM68 °FPartly sunny.13 mph64%29.92 "HgN/A
9:00 AM68 °FPartly sunny.14 mph64%29.89 "HgN/A
8:30 AM68 °FPartly sunny.16 mph64%29.89 "HgN/A
8:00 AM68 °FMostly cloudy.12 mph64%29.89 "HgN/A
7:30 AM68 °FOvercast.9 mph64%29.89 "HgN/A
7:00 AM68 °FMostly cloudy.8 mph64%29.89 "HgN/A
6:30 AM68 °FClear.20 mph64%29.89 "Hg10 mi
6:00 AM68 °FClear.18 mph64%29.89 "Hg10 mi
5:30 AM66 °FClear.18 mph68%29.89 "Hg10 mi
5:00 AM66 °FPassing clouds.20 mph68%29.89 "HgN/A
4:30 AM66 °FClear.20 mph73%29.89 "Hg10 mi
4:00 AM66 °FClear.22 mph73%29.89 "Hg10 mi
3:30 AM66 °FPassing clouds.20 mph73%29.89 "HgN/A
3:00 AM66 °FPassing clouds.22 mph73%29.92 "HgN/A
2:30 AM66 °FClear.20 mph73%29.92 "Hg10 mi
2:00 AM66 °FClear.18 mph73%29.92 "Hg10 mi
1:30 AM66 °FClear.20 mph73%29.92 "Hg10 mi
1:00 AM66 °FClear.18 mph78%29.95 "Hg10 mi
12:30 AM66 °FClear.18 mph78%29.95 "Hg10 mi
12:00 AM66 °FClear.21 mph73%29.95 "Hg10 mi
11:30 PM
Fri, Sep 30
68 °FClear.20 mph73%29.95 "Hg10 mi
11:00 PM68 °FClear.17 mph73%29.98 "Hg10 mi
10:30 PM68 °FClear.16 mph73%29.98 "Hg10 mi
10:00 PM68 °FPassing clouds.18 mph73%29.98 "HgN/A
9:30 PM70 °FClear.15 mph64%29.98 "Hg10 mi
9:00 PM70 °FClear.16 mph64%29.98 "Hg10 mi
8:30 PM70 °FClear.16 mph60%29.98 "Hg10 mi
8:00 PM72 °FClear.17 mph57%29.98 "Hg10 mi
7:30 PM72 °FClear.17 mph57%29.95 "Hg10 mi
7:00 PM73 °FSunny.20 mph53%29.95 "Hg10 mi
6:30 PM75 °FSunny.18 mph50%29.95 "Hg10 mi
6:00 PM75 °FMild.18 mph50%29.95 "HgN/A
5:30 PM75 °FSunny.21 mph50%29.95 "Hg10 mi
5:00 PM75 °FMild.20 mph50%29.95 "HgN/A
4:30 PM77 °FSunny.18 mph47%29.98 "Hg10 mi
4:00 PM77 °FSunny.18 mph51%29.98 "Hg10 mi
3:30 PM77 °FSunny.22 mph47%30.01 "Hg10 mi
3:00 PM77 °FSunny.22 mph51%30.01 "Hg10 mi
2:30 PM75 °FSunny.20 mph54%30.04 "Hg10 mi
2:00 PM77 °FPassing clouds.20 mph51%30.04 "HgN/A
1:30 PM75 °FSunny.22 mph54%30.04 "Hg10 mi
1:00 PM73 °FSunny.17 mph57%30.07 "Hg10 mi
12:30 PM73 °FSunny.20 mph53%30.07 "Hg10 mi
12:00 PM72 °FPassing clouds.18 mph61%30.07 "HgN/A
Weather by CustomWeather, © 2016

See weather overviewHow to use our weather pages